Location: Banios
(43.0451°N, 0.2335°E)
Time: 07:39:44
(UTC+00:00)

A-11 Canister half - Pass Details

Date: 12 May 2021
Orbit: 1527 x 1681 km, 47.3° (Epoch: 22 June)

Event Time Altitude Azimuth Distance (km) Brightness Sun altitude
Rises 13:36:42 0° 288° (WNW) 4,818 11.8 57.3°
Reaches altitude 10° 13:39:47 10° 290° (WNW) 3,851 11.5 56.9°
Maximum altitude 13:49:43 82° 18° (NNE) 1,674 10.2 55.4°
Drops below altitude 10° 13:59:53 10° 107° (ESE) 3,936 11.0 53.9°
Sets 14:03:04 0° 109° (ESE) 4,927 11.4 53.4°
